Погода в Славутиче

Украина / Киевская область     51°31′18″N   30°45′14″E
темп.,
°C
ветер,
м/с
пор.,
м/с
влажн.,
%
обл.,
%
осадки,
мм/ч
давл.,
гПа
погр.,
м
18 апреля, вс
вс1800:00+5з2379100 0.0 101870
03:00+5зюз2588100 0.7 1017215
06:00+5з3891100 0.4 1016312
09:00+6зсз2493100 0.4 1016174
12:00+8ссв138495 0.0 1016430
15:00+9всв557171 0.1 1017855
18:00+9всв46661 0.0 1018827
21:00+6ссв22805 0.0 101911
19 апреля, пн
пн1900:00+5с22875 0.0 101918
03:00+4ссв22915 0.0 102017
06:00+3ссв22935 0.0 101938
09:00+8св45775 0.0 1019436
12:00+12св345673 0.0 10191521
15:00+11св456393 0.1 1018887
18:00+10всв456692 0.0 1018786
21:00+9св257799 0.1 1018169
20 апреля, вт
вт2000:00+7св498884 0.3 1017395
03:00+6св499099 0.3 1016350
06:00+5св389289 0.0 1015430
09:00+6св578295 0.0 1014591
12:00+11ссв456084 0.0 10111258
15:00+9с577398 0.2 1010909
18:00+8с6874100 0.1 10091126
21:00+6ссз598585 0.1 1008531
21 апреля, ср
ср2100:00+5сз51091100 0.0 1008538
03:00+5сз5990100 0.0 1008548
06:00+5зсз4890100 0.1 1009627
09:00+6зсз587213 0.1 1010881
12:00+10з585098 0.0 10111757
15:00+11зюз5849100 0.1 10121986
18:00+11юз475869 0.1 10121317
21:00+7ююз387972 0.2 1013143
22 апреля, чт
чт2200:00+6ююз379197 0.4 1014156
03:00+6ююз369399 0.6 1014132
06:00+5ююз249584 0.1 101579
09:00+10ююз35765 0.3 1015380
12:00+14юз56575 0.3 10151371
15:00+16юз574397 0.5 10142452
18:00+14ююз365981 0.0 1014358
21:00+10ююз3879100 0.9 1014185